CZ-6A DEB

Satellite information

Favourite Embed

Satellite Type and Status

DEBRISIN ORBIT

Key statistics

Satellite CZ-6A DEB at a glance.

Uptime

439

Days in orbit

Revolutions

≈ 14.2

Per day

Orbit

LEO

Low Earth Orbit

Inclination

89.0

Latest

Satellite identification and parameters

Extended collection of information and parameters for CZ-6A DEB.

Object identification

Identified? True

Debris? True

Object name: CZ-6A DEB

International designator: 2024-140HU

Object number (NORAD): 60841

Object ID (CCSDS): 60841

Country: PEOPLES REPUBLIC OF CHINA (PRC)

Current information (Y/N): Y

RCS size: SMALL

Orbital parameters

Period: 101.311 minutes

Inclination: 89.0049 deg

SMA: 7198.865 km

Apoapsis: 851.14 km

Periapsis: 790.321 km

RAAN: 302.2256 deg

Eccentricy: 0.00422421

Argument of periapsis: 243.7802 deg

Mean anomaly: 115.9043 deg

Mean motion: 14.21368557 rev/day

Mean motion (dot): 0.00002795 rev/day2

B* drag term: 0.0012636589 1/REarth

Two-line elements (TLE)

Creation date: Oct. 19, 2025, 2:20 a.m.

Reference frame: TEME

Reference center: EARTH

Epoch: Oct. 18, 2025, 10:08 p.m. UTC

TLE line 0: 0 CZ-6A DEB

TLE line 1: 1 60841U 24140HU 25291.92283098 .00002795 00000-0 12637-2 0 9994

TLE line 2: 2 60841 89.0049 302.2256 0042242 243.7802 115.9043 14.21368557 61328

Live tracking on map

Real-time ground track for satellite CZ-6A DEB.

In-orbit conjunctions

A list of the most updated potential collisions computed for object CZ-6A DEB.

Target Orbit TCA Probability of collision Miss distance Type
SL-16 DEB * LEO 2025-02-08 12:52:49 0.0001945476 730.0 (m) DEBRIS
THOR BURNER 2 R/B SSO 2025-02-02 00:36:23 0.0002034189 432.0 (m) ROCKET BODY
FENGYUN 1C DEB SSO 2025-01-18 08:46:11 0.0001469805 633.0 (m) DEBRIS
FENGYUN 1C DEB SSO 2024-12-06 01:13:07 0.0004172363 679.0 (m) DEBRIS
METEOR 1-17 DEB LEO 2024-11-21 23:10:16 0.0001064152 878.0 (m) DEBRIS

Associated space launch

18 Low Earth Orbit communication satellites with Ku, Q and V band payloads for the G60 constellation operated by Shanghai Spacecom Satellite Technology (SSST) with funding backed by the Shanghai local government. Initial constellation will consist of 1296 satellites by 2027 with long term plans to expand it to 12000 satellites.

CZ-6A DEB was lifted into orbit during the mission ‘Long March 6A | G60 Polar Group 01’, on board a Long March 6A space rocket.

The launch took place on Aug. 6, 2024, 6:42 a.m. from Launch Complex 9A.

For more information about the launch, click the button.

Launch to space Long March 6A | G60 Polar Group 01
Long March 6A | G60 Polar Group 01

Agency: N/A

Status: Launch Successful

Launch date: Aug. 6, 2024, 6:42 a.m. UTC

Rocket: Long March 6A

Launch pad: Launch Complex 9A

Location: Taiyuan Satellite Launch Center, People's Republic of China

...

Latest news about this satellite

News about space launch
Brightness of first Chinese broadband constellation satellites alarms astronomers

The first satellites of a Chinese broadband constellation are significantly brighter than those of Western systems, posing a new challenge for astronomers.

News about space launch
Chinese rocket stage breaks up into cloud of more than 700 pieces of space debris

HELSINKI — A Chinese Long March 6A rocket’s upper stage has fragmented into a cloud of over 700 pieces of space debris, adding to concerns about long-term orbital safety. China […]

News about space launch
China's Thousand Sails Megaconstellation Kicks Off with Dangerous Debris Field

China's Thousand Sails Megaconstellation Kicks Off with Dangerous Debris Field


Newsletter sign-up

Weekly statistics, charts and insights to help you stay on top of the space industry.